Weather History for Greenville, MS

Change the Weather History Date:

Saturday, July 20, 2013

  Actual Average Record
Temperature  
Mean Temperature 82 °F 82 °F  
Max Temperature 92 °F 92 °F 104 °F (1986)
Min Temperature 72 °F 72 °F 62 °F (1947)
Degree Days  
Heating Degree Days 0 0  
Month to date heating degree days 0 0  
Since 1 June heating degree days 0 0  
Since 1 July heating degree days 0 0  
Cooling Degree Days 17 17  
Month to date cooling degree days 305 338  
Year to date cooling degree days 1047 1080  
Since 1 June cooling degree days 764 758  
Growing Degree Days 32 (Base 50)    
Moisture  
Dew Point 72 °F    
Average Humidity 71    
Maximum Humidity 94    
Minimum Humidity 47    
Precipitation  
Precipitation 0.00 in 0.12 in 1.37 in (1938)
Month to date precipitation 1.43 2.74  
Year to date precipitation 27.64 31.04  
Sea Level Pressure  
Sea Level Pressure 29.96 in    
Wind  
Wind Speed 4 mph (South)    
Max Wind Speed 10 mph    
Max Gust Speed 43 mph    
Visibility 10 miles    
Events      
T = Trace of Precipitation, MM = Missing Value Source: NWS Daily Summary

Daily Weather History Graph

Daily Weather History Graph

Search for Another Location

Airport:

Trip Planner

Search our weather history database for the weather conditions in past years. The results will help you decide how hot, cold, wet, or windy it might be!

Date:

Astronomy

Jul. 20, 2013 Rise Set
Actual Time 6:08 AM CDT 8:11 PM CDT
Civil Twilight 5:40 AM CDT 8:39 PM CDT
Nautical Twilight 5:06 AM CDT 9:13 PM CDT
Astronomical Twilight 4:29 AM CDT 9:50 PM CDT
Moon 6:16 PM CDT (7/20) 3:48 AM CDT (7/20)
Length of Visible Light 14h 59m
Length of Day
14h 03m
Waxing Gibbous, 94% of the Moon is Illuminated
Jul 20
Waxing Gibbous
Jul 22
Full
Jul 29
Last Quarter
Aug 6
New
Aug 14
First Quarter

Hourly Weather History & Observations

Time (CDT) Temp. Heat Index Dew Point Humidity Pressure Visibility Wind Dir Wind Speed Gust Speed Precip Events Conditions
12:53 AM 75.9 °F - 72.0 °F 87% 29.96 in 10.0 mi SE 3.5 mph - N/A   Clear
1:53 AM 75.9 °F - 73.0 °F 91% 29.96 in 10.0 mi Calm Calm - 0.00 in   Clear
2:53 AM 75.9 °F - 72.0 °F 87% 29.98 in 10.0 mi SW 3.5 mph - N/A   Clear
3:53 AM 75.9 °F - 72.0 °F 87% 29.98 in 10.0 mi Variable 4.6 mph - N/A   Clear
4:53 AM 73.9 °F - 72.0 °F 93% 29.99 in 10.0 mi South 3.5 mph - N/A   Clear
5:53 AM 73.0 °F - 71.1 °F 93% 30.00 in 8.0 mi Calm Calm - N/A   Clear
6:53 AM 73.0 °F - 71.1 °F 93% 30.00 in 6.0 mi South 5.8 mph - N/A   Clear
7:53 AM 77.0 °F - 73.9 °F 90% 30.00 in 10.0 mi South 4.6 mph - N/A   Clear
8:53 AM 81.0 °F 86.2 °F 73.9 °F 79% 30.00 in 10.0 mi SSW 4.6 mph - N/A   Clear
9:53 AM 84.0 °F 89.6 °F 72.0 °F 67% 29.99 in 10.0 mi SSW 6.9 mph - N/A   Clear
10:53 AM 87.1 °F 92.8 °F 71.1 °F 59% 29.99 in 10.0 mi West 5.8 mph - N/A   Clear
11:53 AM 88.0 °F 94.7 °F 72.0 °F 59% 29.99 in 10.0 mi Calm Calm - N/A   Clear
12:53 PM 88.0 °F 92.9 °F 70.0 °F 55% 29.98 in 10.0 mi Calm Calm - N/A   Mostly Cloudy
1:53 PM 90.0 °F 96.4 °F 71.1 °F 54% 29.96 in 10.0 mi Variable 4.6 mph - N/A   Mostly Cloudy
2:53 PM 91.0 °F 97.6 °F 71.1 °F 52% 29.94 in 10.0 mi SSE 4.6 mph - N/A   Clear
3:53 PM 91.0 °F 97.6 °F 71.1 °F 52% 29.91 in 10.0 mi Variable 5.8 mph - N/A   Clear
4:53 PM 91.0 °F 95.6 °F 69.1 °F 48% 29.89 in 10.0 mi SE 5.8 mph - N/A   Partly Cloudy
5:53 PM 90.0 °F 92.8 °F 66.9 °F 46% 29.88 in 10.0 mi SW 8.1 mph - N/A   Clear
6:53 PM 89.1 °F 95.0 °F 71.1 °F 55% 29.89 in 10.0 mi South 6.9 mph - N/A   Clear
7:53 PM 86.0 °F 91.5 °F 71.1 °F 61% 29.91 in 10.0 mi SSW 4.6 mph - N/A   Clear
8:53 PM 82.0 °F 87.9 °F 73.9 °F 76% 29.91 in 10.0 mi South 3.5 mph - N/A   Partly Cloudy
9:53 PM 80.1 °F 84.2 °F 73.0 °F 79% 29.93 in 10.0 mi South 5.8 mph - N/A   Clear
10:53 PM 79.0 °F - 73.0 °F 82% 29.95 in 10.0 mi Calm Calm - N/A   Clear
11:53 PM 78.1 °F - 73.0 °F 84% 29.96 in 10.0 mi South 6.9 mph - N/A   Clear